[[{"header":{"parameterUnit":"m.s-1","parameterCategory":2,"la1":30.2991,"la2":30.254,"lo1":-89.0895,"lo2":-89.0444,"dy":0.0017,"dx":0.0017,"nx":28,"ny":28,"refTime":"2024-12-15T03:00:00:Z","depth":"0","parameterNumber":2,"parameterNumberName":"U-component_of_CURRENTS"},"data":[0,0,0,0,0,0,0,0,0,0,0,0,0,0,0,0,0,0,0,0,0,0,0,0,0,0,0,0,0,0,0,0,0,0,0,0,0,0,0,0,0,0,0,0,0,0,0,0,0,0,0,0,0,0,0,0,0,0,-0.3068,-0.3069,0,-0.3185,-0.3186,-0.3188,-0.3132,-0.3129,-0.3126,-0.3123,-0.3146,-0.3149,-0.3152,0,0,0,0,0,0,0,0,0,0,0,0,0,-0.2786,-0.2791,-0.3068,-0.3069,-0.3071,-0.3185,-0.3186,-0.3188,-0.3132,-0.3129,-0.3125,-0.3122,-0.3145,-0.3149,-0.3153,0,0,0,0,0,0,0,0,0,0,0,0,0,-0.2906,-0.2793,-0.3067,-0.3057,-0.3057,-0.3185,-0.3186,-0.3188,-0.3133,-0.3129,-0.3124,-0.312,-0.3143,-0.3148,-0.3153,-0.3272,0,0,-0.3168,-0.3171,0,0,0,0,0,0,0,0,-0.2899,-0.2916,-0.3057,-0.3058,-0.3059,-0.314,-0.3095,-0.3212,-0.3134,-0.3104,-0.3123,-0.3118,-0.3139,-0.3144,-0.3176,-0.3273,-0.3274,-0.3169,-0.3172,-0.3174,-0.3175,0,0,0,0,0,0,0,-0.2891,-0.2911,-0.3113,-0.3059,-0.306,-0.3043,-0.3056,-0.3117,-0.3142,-0.3106,-0.3103,-0.3118,-0.3137,-0.3172,-0.3176,-0.3275,-0.3169,-0.3173,-0.3176,-0.3178,-0.3364,-0.3365,0,0,0,0,0,0,-0.2884,-0.2904,-0.311,-0.3117,-0.2967,-0.3052,-0.3066,-0.3118,-0.3144,-0.3144,-0.3122,-0.3115,-0.3165,-0.317,-0.3176,-0.322,-0.3174,-0.3179,-0.3181,-0.3362,-0.3364,-0.3366,0,0,0,0,0,0,-0.2879,-0.2903,-0.3105,-0.301,-0.3034,-0.3062,-0.3121,-0.3122,-0.315,-0.3157,-0.3154,-0.3146,-0.3162,-0.3169,-0.3217,-0.3223,-0.3181,-0.3185,-0.3359,-0.3362,-0.3365,-0.337,0,0,0,0,0,0,-0.2871,-0.2902,-0.2941,-0.3012,-0.304,-0.3189,-0.3125,-0.3128,-0.3167,-0.3159,-0.3178,-0.3175,-0.3159,-0.321,-0.3222,-0.3229,-0.3189,-0.3357,-0.3361,-0.3364,-0.3367,-0.3373,-0.3377,0,0,0,0,0,-0.2861,-0.2951,-0.2944,-0.2968,-0.3094,-0.3192,-0.3206,-0.3207,-0.3173,-0.3211,-0.32,-0.3174,-0.324,-0.3217,-0.3231,-0.3239,-0.3355,-0.336,-0.3364,-0.3365,-0.3372,-0.3377,0,0,0,0,0,0,-0.2852,-0.2956,-0.2948,-0.3064,-0.3118,-0.3182,-0.3229,-0.3227,-0.3258,-0.3239,-0.3221,-0.3221,-0.3263,-0.3272,-0.3246,-0.3305,-0.3288,-0.3295,-0.3284,-0.329,-0.3295,-0.324,-0.3193,0,0,0,0,0,-0.2871,-0.2963,-0.3032,-0.3122,-0.3154,-0.3192,-0.3231,-0.3234,-0.3269,-0.3278,-0.3281,-0.3285,-0.3303,-0.3308,-0.334,-0.3394,-0.3356,-0.3404,-0.3409,-0.3413,-0.338,-0.3317,-0.331,-0.338,-0.338,-0.338,0,0,-0.2889,-0.296,-0.3008,-0.3125,-0.3167,-0.3221,-0.3205,-0.3281,-0.3296,-0.3281,-0.3309,-0.3323,-0.3328,-0.3364,-0.3382,-0.3361,-0.3389,-0.3419,-0.3421,-0.3386,-0.332,-0.3312,-0.3305,-0.3383,-0.3383,-0.3382,0,0,-0.2963,-0.3038,-0.3118,-0.317,-0.3245,-0.3271,-0.3293,-0.3357,-0.3353,-0.3407,-0.3373,-0.3372,-0.3443,-0.3404,-0.3402,-0.3465,-0.3428,-0.3499,-0.3463,-0.3403,-0.3395,-0.3387,-0.3378,-0.3368,-0.3485,-0.3485,-0.3485,0,-0.2965,-0.3065,-0.3154,-0.3224,-0.3239,-0.3288,-0.3321,-0.3366,-0.3423,-0.3395,-0.3412,-0.3423,-0.3441,-0.3408,-0.3426,-0.3466,-0.3449,-0.3434,-0.3402,-0.3394,-0.3385,-0.3377,-0.3366,-0.3486,-0.3485,-0.3485,-0.3485,0,-0.3078,-0.3134,-0.3191,-0.3273,-0.3321,-0.3371,-0.3414,-0.3444,-0.3443,-0.344,-0.3428,-0.3449,-0.342,-0.345,-0.3463,-0.3416,-0.3434,-0.3424,-0.3371,-0.3377,-0.3371,-0.336,-0.3487,-0.3486,-0.3486,-0.3486,0,0,-0.3086,-0.3231,-0.3234,-0.3223,-0.3324,-0.3354,-0.3402,-0.3406,-0.3381,-0.3426,-0.3372,-0.3404,-0.3381,-0.3376,-0.3384,-0.3345,-0.3309,-0.3366,-0.3363,-0.3328,-0.3214,-0.317,-0.3155,-0.3291,-0.3288,-0.3286,-0.3249,0,-0.3098,-0.3188,-0.3268,-0.3286,-0.3295,-0.334,-0.3366,-0.3379,-0.3389,-0.3375,-0.335,-0.3338,-0.3364,-0.3351,-0.3313,-0.3323,-0.3274,-0.3322,-0.3237,-0.3235,-0.3168,-0.3136,-0.3003,-0.2952,-0.3238,-0.3236,-0.3235,0,-0.3125,-0.3163,-0.3194,-0.3202,-0.3213,-0.3244,-0.3215,-0.3252,-0.3262,-0.3266,-0.3233,-0.3246,-0.3212,-0.3239,-0.3182,-0.3219,-0.3203,-0.3203,-0.32,-0.3132,-0.3167,-0.2986,-0.292,-0.2903,-0.3218,-0.3219,-0.322,0,-0.299,-0.3074,-0.3068,-0.3084,-0.315,-0.3137,-0.3161,-0.3186,-0.3188,-0.3186,-0.3187,-0.3147,-0.3142,-0.3102,-0.3133,-0.3149,-0.3083,-0.3094,-0.3026,-0.3026,-0.2875,-0.2865,-0.2741,-0.2999,-0.2999,-0.2999,-0.2999,0,-0.292,-0.2897,-0.3001,-0.2985,-0.2951,-0.3029,-0.2999,-0.3027,-0.3067,-0.3059,-0.3107,-0.3099,-0.3107,-0.3097,-0.3099,-0.3039,-0.3039,-0.2992,-0.2986,-0.2885,-0.2876,-0.2825,-0.286,-0.2997,-0.2998,-0.2998,-0.2998,0,-0.2757,-0.2841,-0.2819,-0.2876,-0.2889,-0.2857,-0.2924,-0.2913,-0.2974,-0.2976,-0.2978,-0.3047,-0.3038,-0.3051,-0.3015,-0.2988,-0.2886,-0.2912,-0.2826,-0.2808,-0.2706,-0.2748,-0.2609,-0.2537,-0.2804,-0.2803,-0.2801,0,-0.2679,-0.2661,-0.2718,-0.2713,-0.2737,-0.2735,-0.2748,-0.2836,-0.2853,-0.2941,-0.2933,-0.2959,-0.2947,-0.2909,-0.2861,-0.2806,-0.2811,-0.266,-0.263,-0.2648,-0.2691,-0.2724,-0.2677,-0.2467,-0.2463,-0.246,-0.2457,0,-0.25,-0.2542,-0.2543,-0.2545,-0.2554,-0.2566,-0.2602,-0.2612,-0.2725,-0.2746,-0.2782,-0.2785,-0.2784,-0.2686,-0.2646,-0.2596,-0.2585,-0.2588,-0.259,-0.2384,-0.2421,-0.2368,-0.2607,-0.2427,-0.243,-0.2433,-0.2434,-0.2435,-0.2364,-0.2336,-0.2368,-0.2349,-0.237,-0.2373,-0.234,-0.2416,-0.2426,-0.2451,-0.2573,-0.2552,-0.2544,-0.2459,-0.2417,-0.2295,-0.2366,-0.2223,-0.227,-0.2303,-0.2212,-0.2415,-0.2239,-0.2241,-0.2242,-0.2244,-0.2245,0,-0.218,-0.2182,-0.2166,-0.2156,-0.212,-0.2191,-0.2218,-0.2179,-0.2151,-0.2235,-0.2246,-0.2266,-0.2173,-0.2184,-0.2096,-0.201,-0.1957,-0.1974,-0.1969,-0.1932,-0.2069,-0.2031,-0.1818,-0.1819,-0.1819,-0.1819,-0.1819,-0.1819,-0.2084,-0.2016,-0.2016,-0.1903,-0.19,-0.1813,-0.1797,-0.1779,-0.1808,-0.1797,-0.1849,-0.1945,-0.1985,-0.2117,-0.1989,-0.1888,-0.185,-0.1788,-0.1844,-0.1946,-0.1973,-0.1999,-0.1967,-0.1746,-0.1746,-0.1607,-0.1606,-0.1605]},{"header":{"parameterUnit":"m.s-1","parameterCategory":2,"la1":30.2991,"la2":30.254,"lo1":-89.0895,"lo2":-89.0444,"dy":0.0017,"dx":0.0017,"nx":28,"ny":28,"refTime":"2024-12-15T03:00:00:Z","depth":"0","parameterNumber":3,"parameterNumberName":"V-component_of_CURRENTS"},"data":[0,0,0,0,0,0,0,0,0,0,0,0,0,0,0,0,0,0,0,0,0,0,0,0,0,0,0,0,0,0,0,0,0,0,0,0,0,0,0,0,0,0,0,0,0,0,0,0,0,0,0,0,0,0,0,0,0,0,-0.0344,-0.0343,0,-0.0232,-0.0231,-0.0229,-0.0147,-0.0146,-0.0146,-0.0145,0.0076,0.0082,0.0087,0,0,0,0,0,0,0,0,0,0,0,0,0,-0.0369,-0.037,-0.0344,-0.0343,-0.0342,-0.0232,-0.023,-0.0229,-0.0147,-0.0146,-0.0146,-0.0145,0.0075,0.0081,0.0088,0,0,0,0,0,0,0,0,0,0,0,0,0,-0.0315,-0.037,-0.0344,-0.029,-0.0284,-0.0233,-0.023,-0.0228,-0.0147,-0.0146,-0.0146,-0.0145,0.0072,0.008,0.0089,0.0127,0,0,0.0114,0.0117,0,0,0,0,0,0,0,0,-0.0319,-0.0314,-0.0299,-0.0294,-0.0287,-0.0205,-0.0158,-0.0105,-0.0147,-0.0196,-0.0145,-0.0145,-0.001,0.0005,0.0027,0.0137,0.0146,0.0115,0.012,0.0123,0.0125,0,0,0,0,0,0,0,-0.0323,-0.0318,-0.0297,-0.0298,-0.0291,-0.0231,-0.0223,-0.0147,-0.0104,-0.0192,-0.0186,-0.0179,-0.0006,0.0019,0.0033,0.015,0.0114,0.0122,0.0127,0.013,0.0318,0.0319,0,0,0,0,0,0,-0.035,-0.0322,-0.03,-0.0294,-0.0305,-0.0232,-0.0223,-0.023,-0.0107,-0.0089,-0.0179,-0.0175,0.0005,0.0024,0.0042,0.0093,0.0123,0.0131,0.0135,0.0318,0.0318,0.0319,0,0,0,0,0,0,-0.0351,-0.035,-0.0305,-0.0307,-0.0297,-0.0233,-0.0241,-0.0228,-0.0204,-0.0099,-0.0079,-0.0169,0.0006,0.003,0.0105,0.0103,0.0134,0.0142,0.0318,0.0318,0.0319,0.0198,0,0,0,0,0,0,-0.0353,-0.0351,-0.0364,-0.0309,-0.0298,-0.0284,-0.0241,-0.0226,-0.0202,-0.0195,-0.0083,-0.0062,0.0008,0.0092,0.0114,0.0115,0.0148,0.0318,0.0318,0.0318,0.0202,0.0194,0.0187,0,0,0,0,0,-0.0354,-0.0383,-0.0366,-0.0363,-0.032,-0.0285,-0.0274,-0.0223,-0.0203,-0.0197,-0.0121,-0.0066,0.0108,0.0099,0.0124,0.0127,0.0318,0.0318,0.0318,0.0205,0.0196,0.0187,0,0,0,0,0,0,-0.0404,-0.0376,-0.0356,-0.0376,-0.0337,-0.0273,-0.0268,-0.0232,-0.0169,-0.0162,-0.0061,-0.0035,0.0029,0.0096,0.0083,0.0183,0.0222,0.0226,0.0127,0.0119,0.0112,0.0093,0.0155,0,0,0,0,0,-0.0423,-0.0436,-0.0389,-0.0405,-0.039,-0.033,-0.031,-0.0276,-0.0216,-0.0189,-0.011,-0.0025,0.0049,0.0095,0.017,0.0228,0.0284,0.0246,0.0239,0.0232,0.0234,0.0298,0.0296,0.0319,0.0319,0.0319,0,0,-0.0449,-0.0434,-0.0442,-0.0416,-0.0382,-0.0367,-0.0316,-0.0296,-0.0276,-0.0172,-0.0121,-0.0048,0.0058,0.0118,0.0153,0.0174,0.0255,0.0232,0.0225,0.0231,0.0298,0.0296,0.0294,0.0319,0.0319,0.0319,0,0,-0.0505,-0.0492,-0.0517,-0.0486,-0.0447,-0.0405,-0.0405,-0.0343,-0.0307,-0.0252,-0.0175,-0.0108,0.0008,0.0079,0.0131,0.0131,0.021,0.0155,0.0109,0.0171,0.0169,0.0168,0.023,0.0235,0.0155,0.0154,0.0154,0,-0.0538,-0.0555,-0.0516,-0.0519,-0.0498,-0.0429,-0.0432,-0.0388,-0.0308,-0.0273,-0.0251,-0.0089,-0.001,0.0074,0.0069,0.0114,0.0161,0.0129,0.0158,0.0159,0.016,0.0224,0.0232,0.0149,0.0149,0.015,0.015,0,-0.06,-0.0603,-0.0613,-0.0593,-0.0566,-0.0558,-0.0491,-0.0457,-0.0407,-0.0352,-0.0268,-0.0165,-0.0066,-0.0037,0.0019,0.0071,0.0104,0.0134,0.0172,0.015,0.0219,0.0229,0.014,0.0142,0.0144,0.0146,0,0,-0.0693,-0.0664,-0.0665,-0.0653,-0.06,-0.0581,-0.055,-0.0491,-0.0462,-0.0384,-0.0336,-0.0223,-0.0167,-0.0105,-0.0028,0.0023,0.0064,0.0071,0.0077,0.0116,0.02,0.0257,0.0274,0.0092,0.0093,0.0094,0.0241,0,-0.0747,-0.0767,-0.0734,-0.0734,-0.0728,-0.0653,-0.0626,-0.0562,-0.0493,-0.043,-0.0324,-0.0249,-0.0192,-0.0148,-0.009,0.0034,0.0087,0.0022,0.023,0.0237,0.0277,0.0287,0.0317,0.0453,0.0251,0.0253,0.0254,0,-0.0815,-0.081,-0.0829,-0.0782,-0.0774,-0.0764,-0.0693,-0.0659,-0.0555,-0.05,-0.0413,-0.0323,-0.0219,-0.0181,0.0007,-0.0038,0.0067,0.0154,0.0162,0.0267,0.0313,0.0447,0.048,0.0652,0.0271,0.027,0.0268,0,-0.0884,-0.0872,-0.0886,-0.0871,-0.0817,-0.0806,-0.0772,-0.0684,-0.0649,-0.0545,-0.0504,-0.0367,-0.0291,-0.0151,0.0037,0.0021,0.0241,0.0247,0.0401,0.0406,0.0503,0.0514,0.0716,0.037,0.0369,0.0369,0.0369,0,-0.0946,-0.0952,-0.092,-0.0922,-0.0926,-0.0867,-0.0854,-0.0795,-0.0718,-0.0676,-0.055,-0.0478,-0.0284,-0.0127,0.0028,0.0259,0.0244,0.0403,0.0452,0.0462,0.0468,0.0679,0.0737,0.0375,0.0373,0.0372,0.0371,0,-0.1012,-0.0998,-0.1007,-0.0969,-0.0961,-0.0963,-0.0918,-0.0901,-0.082,-0.0761,-0.0732,-0.0554,-0.0344,-0.013,0.0119,0.0257,0.0577,0.0548,0.0548,0.0594,0.0873,0.0921,0.1177,0.127,0.073,0.0732,0.0734,0,-0.1045,-0.1061,-0.1051,-0.1064,-0.1051,-0.1044,-0.1037,-0.0963,-0.0938,-0.0796,-0.0769,-0.0561,-0.0386,0.0009,0.0283,0.0582,0.0702,0.0777,0.075,0.0909,0.0999,0.1031,0.1092,0.0832,0.0835,0.0837,0.0839,0,-0.1093,-0.1097,-0.1104,-0.113,-0.114,-0.1142,-0.1122,-0.1121,-0.1025,-0.0942,-0.0793,-0.0642,-0.0256,0.0103,0.0487,0.0664,0.09,0.0829,0.1003,0.1108,0.1149,0.1255,0.0713,0.0858,0.0856,0.0854,0.0853,0.0853,-0.1128,-0.1151,-0.1164,-0.1186,-0.1206,-0.1221,-0.1214,-0.1175,-0.1114,-0.0962,-0.0824,-0.0553,-0.005,0.0501,0.0708,0.1135,0.1082,0.1256,0.1305,0.1327,0.141,0.0908,0.1097,0.1096,0.1096,0.1095,0.1095,0,-0.1151,-0.1174,-0.1209,-0.1237,-0.1266,-0.1254,-0.1247,-0.1203,-0.1118,-0.0948,-0.076,-0.0207,0.0304,0.0764,0.1358,0.1596,0.1635,0.1714,0.177,0.1812,0.1391,0.1388,0.1637,0.1637,0.1637,0.1637,0.1636,0.1636,-0.1165,-0.1199,-0.1212,-0.1263,-0.1287,-0.1287,-0.1277,-0.1182,-0.1047,-0.0717,-0.0408,-0.0168,0.0478,0.1439,0.1991,0.2042,0.2231,0.2219,0.2322,0.2031,0.1991,0.1953,0.1967,0.2334,0.2334,0.2726,0.273,0.2733]}],[{"header":{"parameterUnit":"m.s-1","parameterCategory":2,"la1":30.2991,"la2":30.254,"lo1":-89.0895,"lo2":-89.0444,"dy":0.0017,"dx":0.0017,"nx":28,"ny":28,"refTime":"2024-12-15T03:00:00:Z","depth":"2","parameterNumber":2,"parameterNumberName":"U-component_of_CURRENTS"},"data":[0,0,0,0,0,0,0,0,0,0,0,0,0,0,0,0,0,0,0,0,0,0,0,0,0,0,0,0,0,0,0,0,0,0,0,0,0,0,0,0,0,0,0,0,0,0,0,0,0,0,0,0,0,0,0,0,0,0,-0.2561,-0.2562,0,-0.2629,-0.2629,-0.263,-0.2606,-0.2605,-0.2604,-0.2602,-0.2622,-0.2624,-0.2625,0,0,0,0,0,0,0,0,0,0,0,0,0,-0.2396,-0.2399,-0.2561,-0.2562,-0.2563,-0.2629,-0.2629,-0.263,-0.2607,-0.2605,-0.2603,-0.2602,-0.2621,-0.2623,-0.2626,0,0,0,0,0,0,0,0,0,0,0,0,0,-0.2465,-0.24,-0.2561,-0.256,-0.2561,-0.2628,-0.2629,-0.263,-0.2607,-0.2605,-0.2603,-0.2601,-0.2621,-0.2623,-0.2626,-0.2683,0,0,-0.2634,-0.2635,0,0,0,0,0,0,0,0,-0.2461,-0.2471,-0.256,-0.2561,-0.2562,-0.2608,-0.2578,-0.2646,-0.2608,-0.2588,-0.2602,-0.26,-0.2615,-0.2618,-0.2634,-0.2684,-0.2685,-0.2634,-0.2636,-0.2637,-0.2638,0,0,0,0,0,0,0,-0.2456,-0.2468,-0.2587,-0.2561,-0.2562,-0.2551,-0.2559,-0.2591,-0.261,-0.259,-0.2588,-0.2599,-0.2615,-0.2632,-0.2634,-0.2685,-0.2634,-0.2637,-0.2638,-0.2639,-0.2783,-0.2785,0,0,0,0,0,0,-0.2455,-0.2464,-0.2584,-0.2589,-0.2507,-0.2556,-0.2564,-0.2594,-0.2611,-0.2613,-0.2601,-0.2598,-0.2628,-0.2631,-0.2635,-0.2681,-0.2637,-0.264,-0.2641,-0.2781,-0.2783,-0.2786,0,0,0,0,0,0,-0.2451,-0.2466,-0.2582,-0.2527,-0.2541,-0.2561,-0.2595,-0.2597,-0.2611,-0.262,-0.262,-0.2613,-0.2627,-0.2631,-0.2675,-0.2682,-0.2641,-0.2643,-0.2778,-0.2781,-0.2784,-0.2788,0,0,0,0,0,0,-0.2447,-0.2465,-0.2487,-0.2528,-0.2544,-0.2628,-0.2597,-0.2599,-0.2622,-0.2618,-0.2631,-0.2631,-0.2625,-0.2671,-0.2677,-0.2685,-0.2645,-0.2775,-0.278,-0.2783,-0.2785,-0.2791,-0.2796,0,0,0,0,0,-0.2441,-0.2487,-0.2489,-0.2503,-0.2575,-0.263,-0.2638,-0.2642,-0.2624,-0.2644,-0.2654,-0.263,-0.2701,-0.2676,-0.2682,-0.2691,-0.2773,-0.2778,-0.2783,-0.2782,-0.279,-0.2796,0,0,0,0,0,0,-0.2432,-0.249,-0.2492,-0.2555,-0.2589,-0.2626,-0.2653,-0.2651,-0.2677,-0.2678,-0.2666,-0.2668,-0.2707,-0.2716,-0.2687,-0.2749,-0.2731,-0.2738,-0.2728,-0.2735,-0.2741,-0.2713,-0.2648,0,0,0,0,0,-0.2442,-0.2485,-0.2533,-0.2579,-0.2604,-0.2628,-0.265,-0.2661,-0.2688,-0.2697,-0.2701,-0.2717,-0.2738,-0.2748,-0.2775,-0.2816,-0.279,-0.2828,-0.2833,-0.2838,-0.2824,-0.2787,-0.2785,-0.2802,-0.2802,-0.2802,0,0,-0.245,-0.2487,-0.2511,-0.2579,-0.2607,-0.2648,-0.2636,-0.2688,-0.2708,-0.2698,-0.273,-0.2743,-0.2758,-0.2796,-0.2813,-0.2798,-0.2829,-0.2844,-0.2847,-0.2831,-0.2791,-0.2789,-0.2787,-0.2805,-0.2805,-0.2804,0,0,-0.2485,-0.2525,-0.2569,-0.2603,-0.2658,-0.2678,-0.2693,-0.2739,-0.2747,-0.2795,-0.2782,-0.2795,-0.2845,-0.2836,-0.2842,-0.2901,-0.2862,-0.2922,-0.2917,-0.2882,-0.2878,-0.2875,-0.2862,-0.2857,-0.2918,-0.2918,-0.2918,0,-0.2488,-0.2545,-0.2589,-0.2636,-0.2654,-0.2688,-0.2724,-0.2757,-0.2803,-0.2799,-0.2809,-0.2838,-0.2855,-0.2857,-0.2882,-0.2905,-0.289,-0.2882,-0.2882,-0.2878,-0.2874,-0.2862,-0.2856,-0.2919,-0.2919,-0.2918,-0.2918,0,-0.2547,-0.2589,-0.2621,-0.2679,-0.2713,-0.2756,-0.2799,-0.2827,-0.2838,-0.2844,-0.286,-0.2882,-0.288,-0.29,-0.2913,-0.2901,-0.2902,-0.2891,-0.2849,-0.2872,-0.2859,-0.2853,-0.292,-0.2919,-0.2919,-0.2919,0,0,-0.2542,-0.2641,-0.2643,-0.2656,-0.2733,-0.2756,-0.2808,-0.2834,-0.2834,-0.2873,-0.2858,-0.2897,-0.2882,-0.2889,-0.2895,-0.2876,-0.2856,-0.2879,-0.2877,-0.2839,-0.2792,-0.2738,-0.2726,-0.2839,-0.2837,-0.2836,-0.28,0,-0.2558,-0.2625,-0.2677,-0.2715,-0.2741,-0.2783,-0.2814,-0.2843,-0.2864,-0.287,-0.287,-0.2876,-0.2886,-0.2885,-0.2866,-0.2868,-0.2839,-0.2868,-0.28,-0.2799,-0.2722,-0.2716,-0.2515,-0.246,-0.2794,-0.2793,-0.2792,0,-0.2574,-0.2609,-0.2655,-0.2697,-0.2713,-0.2742,-0.2758,-0.2797,-0.2823,-0.2839,-0.2833,-0.2843,-0.2836,-0.2842,-0.2806,-0.2826,-0.2805,-0.2798,-0.2795,-0.273,-0.2731,-0.2491,-0.2436,-0.2782,-0.2783,-0.2784,-0.2784,0,-0.2496,-0.2577,-0.2597,-0.2616,-0.2688,-0.2698,-0.2729,-0.2766,-0.2783,-0.2808,-0.2816,-0.2806,-0.2807,-0.2776,-0.2781,-0.2789,-0.274,-0.2741,-0.2662,-0.266,-0.2466,-0.2447,-0.2681,-0.2681,-0.2681,-0.2681,-0.2681,0,-0.2465,-0.2471,-0.2558,-0.256,-0.2564,-0.2638,-0.2641,-0.2678,-0.2725,-0.273,-0.2779,-0.2776,-0.2789,-0.2777,-0.2765,-0.27,-0.2716,-0.2647,-0.2633,-0.2469,-0.2452,-0.2713,-0.2717,-0.268,-0.268,-0.268,-0.2681,0,-0.2361,-0.2432,-0.2443,-0.251,-0.2528,-0.2521,-0.2589,-0.2593,-0.2659,-0.2673,-0.2682,-0.2743,-0.2729,-0.2736,-0.2703,-0.2669,-0.2622,-0.2588,-0.2414,-0.2378,-0.2572,-0.2578,-0.2485,-0.2482,-0.248,-0.2478,-0.2477,0,-0.2311,-0.2312,-0.2374,-0.2377,-0.2403,-0.2422,-0.2439,-0.2532,-0.2552,-0.2639,-0.2635,-0.2659,-0.2632,-0.2587,-0.2534,-0.2472,-0.2554,-0.2263,-0.2228,-0.255,-0.2545,-0.2555,-0.2563,-0.1987,-0.1982,-0.1978,-0.1974,0,-0.2187,-0.2218,-0.2231,-0.2242,-0.2259,-0.2277,-0.2319,-0.233,-0.2439,-0.2457,-0.2479,-0.2469,-0.2456,-0.231,-0.2266,-0.2204,-0.2262,-0.2172,-0.2512,-0.2081,-0.208,-0.2077,-0.2101,-0.1935,-0.1939,-0.1941,-0.1944,-0.1945,-0.2076,-0.2056,-0.2084,-0.2077,-0.2103,-0.2106,-0.2076,-0.2142,-0.2146,-0.2156,-0.226,-0.2192,-0.2197,-0.2015,-0.1929,-0.187,-0.2018,-0.1928,-0.1941,-0.1958,-0.192,-0.1916,-0.1734,-0.1737,-0.1739,-0.1741,-0.1743,0,-0.1919,-0.1923,-0.1914,-0.1911,-0.1883,-0.1951,-0.1968,-0.1921,-0.1877,-0.1924,-0.1914,-0.1734,-0.1649,-0.1669,-0.1516,-0.1495,-0.1468,-0.1434,-0.1399,-0.1438,-0.1473,-0.141,-0.1089,-0.1087,-0.1085,-0.1084,0,0,-0.1836,-0.1778,-0.1778,-0.1683,-0.1686,-0.1603,-0.1581,-0.1541,-0.1538,-0.1451,-0.1423,-0.1554,-0.1606,-0.135,-0.1291,-0.1168,-0.1285,-0.1104,-0.1624,-0.1619,-0.1652,-0.1749,-0.1695,0,0,0,0,0]},{"header":{"parameterUnit":"m.s-1","parameterCategory":2,"la1":30.2991,"la2":30.254,"lo1":-89.0895,"lo2":-89.0444,"dy":0.0017,"dx":0.0017,"nx":28,"ny":28,"refTime":"2024-12-15T03:00:00:Z","depth":"2","parameterNumber":3,"parameterNumberName":"V-component_of_CURRENTS"},"data":[0,0,0,0,0,0,0,0,0,0,0,0,0,0,0,0,0,0,0,0,0,0,0,0,0,0,0,0,0,0,0,0,0,0,0,0,0,0,0,0,0,0,0,0,0,0,0,0,0,0,0,0,0,0,0,0,0,0,-0.0315,-0.0314,0,-0.0232,-0.0231,-0.023,-0.0155,-0.0155,-0.0154,-0.0153,0.003,0.0034,0.0038,0,0,0,0,0,0,0,0,0,0,0,0,0,-0.0326,-0.0326,-0.0315,-0.0314,-0.0313,-0.0232,-0.0231,-0.0229,-0.0155,-0.0155,-0.0154,-0.0153,0.0028,0.0033,0.0038,0,0,0,0,0,0,0,0,0,0,0,0,0,-0.0288,-0.0326,-0.0315,-0.0269,-0.0264,-0.0232,-0.0231,-0.0229,-0.0156,-0.0155,-0.0154,-0.0153,0.0027,0.0033,0.0039,0.0059,0,0,0.0059,0.0061,0,0,0,0,0,0,0,0,-0.029,-0.0287,-0.0276,-0.0272,-0.0266,-0.0205,-0.0167,-0.0129,-0.0156,-0.0194,-0.0153,-0.0152,-0.0042,-0.003,-0.0014,0.0068,0.0075,0.0059,0.0063,0.0066,0.0068,0,0,0,0,0,0,0,-0.0293,-0.029,-0.028,-0.0276,-0.0269,-0.0223,-0.0217,-0.016,-0.0121,-0.0191,-0.0186,-0.0181,-0.0038,-0.0021,-0.0009,0.0078,0.0059,0.0065,0.0069,0.0071,0.0217,0.0217,0,0,0,0,0,0,-0.0314,-0.0293,-0.0282,-0.0277,-0.0279,-0.0224,-0.0217,-0.0224,-0.0123,-0.0109,-0.0182,-0.0178,-0.0032,-0.0017,-0.0002,0.0044,0.0066,0.0072,0.0076,0.0217,0.0217,0.0217,0,0,0,0,0,0,-0.0315,-0.0314,-0.0286,-0.0284,-0.0278,-0.0226,-0.0233,-0.0223,-0.0204,-0.0118,-0.0101,-0.0174,-0.0031,-0.0011,0.0049,0.0051,0.0075,0.0081,0.0217,0.0217,0.0217,0.0126,0,0,0,0,0,0,-0.0315,-0.0315,-0.0327,-0.0286,-0.0279,-0.0276,-0.0234,-0.0222,-0.0204,-0.0198,-0.0106,-0.0088,-0.0029,0.0039,0.0055,0.006,0.0086,0.0217,0.0217,0.0217,0.0129,0.0123,0.0117,0,0,0,0,0,-0.0316,-0.0344,-0.0329,-0.0327,-0.0297,-0.0277,-0.0269,-0.0226,-0.0205,-0.0204,-0.0138,-0.0091,0.0051,0.0044,0.0063,0.007,0.0216,0.0217,0.0217,0.0131,0.0124,0.0118,0,0,0,0,0,0,-0.0359,-0.0338,-0.032,-0.0341,-0.0314,-0.0266,-0.0264,-0.0235,-0.0184,-0.0175,-0.009,-0.0068,-0.0016,0.0038,0.0028,0.0112,0.0142,0.0145,0.007,0.0064,0.0058,0.0048,0.0091,0,0,0,0,0,-0.0375,-0.0387,-0.0354,-0.037,-0.036,-0.0313,-0.0299,-0.0272,-0.0224,-0.0201,-0.0136,-0.0064,-0.0002,0.0038,0.0097,0.0144,0.0195,0.0162,0.0156,0.0151,0.0155,0.0223,0.0224,0.0217,0.0217,0.0217,0,0,-0.0398,-0.0387,-0.0394,-0.0379,-0.0353,-0.0344,-0.0302,-0.0291,-0.0273,-0.0188,-0.0144,-0.0085,0.0004,0.0055,0.0084,0.0103,0.0177,0.0151,0.0146,0.0154,0.0223,0.0224,0.0225,0.0217,0.0217,0.0217,0,0,-0.0447,-0.0438,-0.0459,-0.0438,-0.041,-0.0378,-0.0379,-0.0333,-0.0302,-0.026,-0.0192,-0.0133,-0.0042,0.0025,0.0071,0.0071,0.0138,0.0087,0.0061,0.0125,0.0127,0.0128,0.0179,0.0186,0.0092,0.0092,0.0092,0,-0.0474,-0.049,-0.0462,-0.0467,-0.045,-0.0398,-0.0402,-0.0366,-0.0305,-0.0272,-0.0257,-0.0118,-0.0053,0.003,0.0027,0.006,0.01,0.0075,0.0117,0.012,0.0123,0.0175,0.0184,0.0087,0.0088,0.0088,0.0089,0,-0.0528,-0.0533,-0.0542,-0.0527,-0.0508,-0.0505,-0.0451,-0.0424,-0.0382,-0.0334,-0.0259,-0.0173,-0.0084,-0.006,-0.0015,0.0045,0.0066,0.0092,0.0128,0.0118,0.0174,0.0184,0.0081,0.0083,0.0084,0.0085,0,0,-0.0608,-0.0586,-0.0587,-0.0578,-0.0536,-0.0525,-0.0495,-0.0444,-0.0414,-0.035,-0.03,-0.0202,-0.0154,-0.0099,-0.0032,0.0023,0.007,0.0059,0.0064,0.0099,0.0203,0.0234,0.0249,0.01,0.0101,0.0103,0.0227,0,-0.0654,-0.0674,-0.0645,-0.0647,-0.0646,-0.0581,-0.0555,-0.0499,-0.0439,-0.0379,-0.0281,-0.0215,-0.0167,-0.0129,-0.0066,0.0039,0.0097,0.0034,0.0218,0.0224,0.0244,0.0262,0.0226,0.0336,0.0238,0.024,0.0241,0,-0.0715,-0.0712,-0.073,-0.069,-0.0684,-0.0676,-0.0611,-0.058,-0.0481,-0.0432,-0.0345,-0.0267,-0.0165,-0.0135,0.0042,-0.0003,0.0091,0.0167,0.0174,0.0246,0.0276,0.0336,0.036,0.026,0.0258,0.0257,0.0256,0,-0.0778,-0.0768,-0.0781,-0.077,-0.0723,-0.0712,-0.0682,-0.0599,-0.0566,-0.0465,-0.0427,-0.0293,-0.0226,-0.0092,0.0068,0.0055,0.0256,0.0265,0.0385,0.0388,0.0418,0.0421,0.0389,0.0389,0.0388,0.0388,0.0388,0,-0.0835,-0.0842,-0.0814,-0.0818,-0.0822,-0.077,-0.0755,-0.07,-0.0625,-0.0583,-0.0463,-0.0397,-0.0215,-0.0075,0.0064,0.0263,0.0262,0.039,0.043,0.0384,0.0382,0.0368,0.0363,0.0393,0.0392,0.0391,0.039,0,-0.09,-0.0887,-0.0898,-0.0864,-0.0857,-0.086,-0.0816,-0.0797,-0.0721,-0.0664,-0.0636,-0.047,-0.0286,-0.0092,0.0136,0.0258,0.0442,0.0513,0.044,0.0469,0.0528,0.0517,0.0656,0.0658,0.066,0.0662,0.0663,0,-0.0934,-0.095,-0.0941,-0.0954,-0.0943,-0.0937,-0.093,-0.0858,-0.0831,-0.07,-0.0675,-0.0491,-0.034,0.0008,0.0248,0.0509,0.0508,0.0623,0.06,0.0535,0.0559,0.0545,0.0533,0.0598,0.0599,0.06,0.06,0,-0.0985,-0.0988,-0.0995,-0.102,-0.1029,-0.1027,-0.1008,-0.1005,-0.0913,-0.0839,-0.0709,-0.0579,-0.0248,0.0036,0.0368,0.0514,0.0576,0.0644,0.0621,0.0531,0.049,0.051,0.0498,0.0606,0.0605,0.0605,0.0604,0.0604,-0.1021,-0.1044,-0.1056,-0.1076,-0.1092,-0.1102,-0.1096,-0.1058,-0.1003,-0.087,-0.0752,-0.0526,-0.0258,0.0215,0.0449,0.0663,0.0658,0.0711,0.0706,0.0701,0.0666,0.0631,0.0766,0.0766,0.0767,0.0767,0.0767,0,-0.1049,-0.107,-0.1101,-0.1126,-0.115,-0.1138,-0.1127,-0.1089,-0.1018,-0.0873,-0.0716,-0.0409,-0.0085,0.0196,0.0539,0.0744,0.0718,0.0771,0.0695,0.0689,0.0684,0.0645,0.0741,0.0741,0.0742,0.0742,0,0,-0.1066,-0.1097,-0.1108,-0.1153,-0.1176,-0.1179,-0.1169,-0.1086,-0.0971,-0.0807,-0.0638,-0.0416,-0.0076,0.0159,0.0413,0.059,0.0586,0.0604,0.0604,0.0478,0.0471,0.0631,0.0562,0,0,0,0,0]}],[{"header":{"parameterUnit":"m.s-1","parameterCategory":2,"la1":30.2991,"la2":30.254,"lo1":-89.0895,"lo2":-89.0444,"dy":0.0017,"dx":0.0017,"nx":28,"ny":28,"refTime":"2024-12-15T03:00:00:Z","depth":"4","parameterNumber":2,"parameterNumberName":"U-component_of_CURRENTS"},"data":[0,0,0,0,0,0,0,0,0,0,0,0,0,0,0,0,0,0,0,0,0,0,0,0,0,0,0,0,0,0,0,0,0,0,0,0,0,0,0,0,0,0,0,0,0,0,0,0,0,0,0,0,0,0,0,0,0,0,-0.1746,-0.1747,0,-0.1803,-0.1804,-0.1804,-0.1849,-0.1849,-0.185,-0.1851,-0.19,-0.1901,-0.1902,0,0,0,0,0,0,0,0,0,0,0,0,0,-0.165,-0.1651,-0.1746,-0.1747,-0.1748,-0.1803,-0.1804,-0.1804,-0.1848,-0.1849,-0.185,-0.1851,-0.19,-0.1901,-0.1902,0,0,0,0,0,0,0,0,0,0,0,0,0,-0.1695,-0.1652,-0.1746,-0.1779,-0.1782,-0.1803,-0.1804,-0.1804,-0.1848,-0.1849,-0.185,-0.1851,-0.19,-0.1901,-0.1902,-0.1888,0,0,-0.1905,-0.1905,0,0,0,0,0,0,0,0,-0.1693,-0.1698,-0.1773,-0.1777,-0.1781,-0.1822,-0.1788,-0.1833,-0.1848,-0.182,-0.1851,-0.1852,-0.1875,-0.1878,-0.1882,-0.189,-0.1892,-0.1905,-0.1906,-0.1906,-0.1906,0,0,0,0,0,0,0,-0.1689,-0.1696,-0.1766,-0.1774,-0.1779,-0.1782,-0.179,-0.1797,-0.1839,-0.1823,-0.1827,-0.1837,-0.1876,-0.1881,-0.1884,-0.1893,-0.1905,-0.1906,-0.1907,-0.1907,-0.198,-0.1981,0,0,0,0,0,0,-0.1689,-0.1693,-0.1764,-0.1768,-0.1742,-0.1784,-0.1792,-0.1806,-0.1839,-0.1846,-0.1836,-0.1839,-0.1879,-0.1883,-0.1886,-0.1951,-0.1906,-0.1907,-0.1908,-0.1979,-0.198,-0.1982,0,0,0,0,0,0,-0.1686,-0.1694,-0.1762,-0.1734,-0.1743,-0.1785,-0.1799,-0.1806,-0.1841,-0.185,-0.1856,-0.1868,-0.188,-0.1884,-0.192,-0.195,-0.1908,-0.1909,-0.1977,-0.1979,-0.1981,-0.203,0,0,0,0,0,0,-0.1683,-0.1693,-0.1714,-0.1734,-0.1745,-0.1791,-0.1799,-0.1807,-0.1845,-0.185,-0.1878,-0.1882,-0.1881,-0.1919,-0.1921,-0.1951,-0.1909,-0.1976,-0.1978,-0.1981,-0.2027,-0.2033,-0.2039,0,0,0,0,0,-0.168,-0.1695,-0.1715,-0.1724,-0.1769,-0.1793,-0.1798,-0.1829,-0.1846,-0.1863,-0.1887,-0.1883,-0.1936,-0.192,-0.1923,-0.1954,-0.1974,-0.1977,-0.198,-0.2024,-0.2032,-0.2039,0,0,0,0,0,0,-0.1673,-0.1702,-0.1724,-0.1752,-0.1782,-0.1802,-0.1821,-0.1843,-0.1875,-0.189,-0.1896,-0.1902,-0.1945,-0.1942,-0.1924,-0.1983,-0.1956,-0.196,-0.1988,-0.1996,-0.2002,-0.2012,-0.191,0,0,0,0,0,-0.168,-0.1697,-0.173,-0.1757,-0.1771,-0.1803,-0.1822,-0.1847,-0.1873,-0.1889,-0.1911,-0.1934,-0.1953,-0.197,-0.1984,-0.2013,-0.1998,-0.2036,-0.2042,-0.2047,-0.2058,-0.206,-0.2067,-0.1992,-0.1992,-0.1992,0,0,-0.1689,-0.1705,-0.172,-0.1757,-0.178,-0.1812,-0.1817,-0.1855,-0.1892,-0.1888,-0.1946,-0.1957,-0.1966,-0.2002,-0.2022,-0.2008,-0.2059,-0.2051,-0.2056,-0.2064,-0.2064,-0.2071,-0.2077,-0.1994,-0.1993,-0.1993,0,0,-0.1699,-0.1727,-0.1744,-0.1773,-0.1816,-0.1833,-0.1852,-0.1893,-0.1921,-0.1971,-0.198,-0.2012,-0.2045,-0.2057,-0.2065,-0.2114,-0.2091,-0.2123,-0.2164,-0.2166,-0.2172,-0.2177,-0.2155,-0.2158,-0.2127,-0.2127,-0.2127,0,-0.1717,-0.1744,-0.1755,-0.1783,-0.1817,-0.1847,-0.1887,-0.1915,-0.1968,-0.1995,-0.2001,-0.2061,-0.2071,-0.2108,-0.2132,-0.2128,-0.2118,-0.2133,-0.2173,-0.2178,-0.2182,-0.2159,-0.2161,-0.2129,-0.2129,-0.2129,-0.2129,0,-0.173,-0.1776,-0.1788,-0.1835,-0.1867,-0.1907,-0.1948,-0.199,-0.2029,-0.2058,-0.2116,-0.2128,-0.2162,-0.2172,-0.2171,-0.2213,-0.219,-0.2178,-0.2151,-0.2193,-0.2165,-0.2167,-0.2133,-0.2132,-0.2131,-0.2131,0,0,-0.1715,-0.1787,-0.1798,-0.1838,-0.1906,-0.1929,-0.1992,-0.2049,-0.209,-0.2141,-0.219,-0.2231,-0.224,-0.225,-0.2249,-0.226,-0.2279,-0.2242,-0.2241,-0.2216,-0.227,-0.2125,-0.2112,-0.2275,-0.2276,-0.2277,-0.2233,0,-0.1734,-0.1794,-0.1829,-0.1905,-0.1944,-0.2,-0.205,-0.2107,-0.2152,-0.2203,-0.2229,-0.2268,-0.2266,-0.2284,-0.2299,-0.2287,-0.2289,-0.2291,-0.2238,-0.2236,-0.2098,-0.2111,-0.228,-0.2234,-0.2234,-0.2234,-0.2234,0,-0.1736,-0.1779,-0.1853,-0.1946,-0.1968,-0.2019,-0.2102,-0.2152,-0.2223,-0.2258,-0.2305,-0.232,-0.2354,-0.2339,-0.2341,-0.2344,-0.2319,-0.2301,-0.2298,-0.2149,-0.2094,-0.2188,-0.2237,-0.2237,-0.2236,-0.2236,-0.2236,0,-0.1696,-0.1797,-0.1856,-0.1892,-0.1993,-0.2043,-0.2097,-0.2174,-0.2209,-0.2291,-0.2317,-0.2362,-0.2375,-0.2371,-0.2342,-0.2348,-0.2322,-0.2316,-0.2157,-0.2146,-0.2269,-0.2264,-0.2311,-0.2312,-0.2312,-0.2312,-0.2312,0,-0.1685,-0.1739,-0.1849,-0.1882,-0.1947,-0.2031,-0.2096,-0.2158,-0.2235,-0.226,-0.2336,-0.234,-0.2386,-0.2374,-0.2351,-0.2246,-0.2324,-0.2161,-0.2126,-0.2289,-0.2287,-0.2269,-0.2265,-0.231,-0.231,-0.2311,-0.2311,0,-0.1619,-0.1703,-0.1771,-0.189,-0.193,-0.197,-0.2076,-0.2109,-0.2202,-0.2236,-0.226,-0.2326,-0.2304,-0.2315,-0.2294,-0.2224,-0.216,-0.2103,-0.2265,-0.224,-0.1982,-0.1981,-0.192,-0.1914,-0.191,-0.1906,-0.1902,0,-0.1581,-0.1614,-0.1743,-0.1776,-0.1833,-0.191,-0.1953,-0.2071,-0.2097,-0.2194,-0.2187,-0.2215,-0.2235,-0.2073,-0.2121,-0.2052,-0.203,-0.1987,-0.2001,-0.197,-0.1943,-0.1949,-0.1954,-0.1895,-0.1894,-0.1893,-0.1891,0,-0.1495,-0.1557,-0.1605,-0.1674,-0.1735,-0.1783,-0.1859,-0.186,-0.1975,-0.2085,-0.2039,-0.2015,-0.1984,-0.1959,-0.1915,-0.1874,-0.2014,-0.1938,-0.1948,-0.1961,-0.1939,-0.1918,-0.1929,-0.1875,-0.1878,-0.1879,-0.188,0,-0.1415,-0.1423,-0.1497,-0.1537,-0.1611,-0.1622,-0.1684,-0.1705,-0.1744,-0.1863,-0.184,-0.1877,-0.1951,-0.1864,-0.1827,-0.1772,-0.175,-0.1698,-0.172,-0.1738,-0.1702,-0.1649,-0.1459,0,0,0,0,0,-0.1321,-0.1317,-0.135,-0.1391,-0.146,-0.15,-0.1598,-0.1665,-0.1782,-0.1695,-0.1761,-0.1722,-0.1667,-0.1694,-0.1596,-0.1754,-0.1764,-0.1636,-0.1718,-0.1786,-0.1805,-0.178,0,0,0,0,0,0,-0.1257,-0.1286,-0.1297,-0.1257,-0.1257,-0.1314,-0.1368,-0.1457,-0.1419,-0.1542,-0.1512,-0.1614,-0.158,-0.1681,-0.1556,-0.1565,-0.1581,-0.1676,-0.1671,-0.1776,-0.1793,-0.1807,-0.1789,0,0,0,0,0]},{"header":{"parameterUnit":"m.s-1","parameterCategory":2,"la1":30.2991,"la2":30.254,"lo1":-89.0895,"lo2":-89.0444,"dy":0.0017,"dx":0.0017,"nx":28,"ny":28,"refTime":"2024-12-15T03:00:00:Z","depth":"4","parameterNumber":3,"parameterNumberName":"V-component_of_CURRENTS"},"data":[0,0,0,0,0,0,0,0,0,0,0,0,0,0,0,0,0,0,0,0,0,0,0,0,0,0,0,0,0,0,0,0,0,0,0,0,0,0,0,0,0,0,0,0,0,0,0,0,0,0,0,0,0,0,0,0,0,0,-0.0226,-0.0226,0,-0.0183,-0.0182,-0.0181,-0.0131,-0.013,-0.0129,-0.0129,-0.0008,-0.0006,-0.0003,0,0,0,0,0,0,0,0,0,0,0,0,0,-0.022,-0.022,-0.0226,-0.0226,-0.0225,-0.0183,-0.0182,-0.0181,-0.0131,-0.013,-0.0129,-0.0129,-0.0009,-0.0006,-0.0003,0,0,0,0,0,0,0,0,0,0,0,0,0,-0.0203,-0.0221,-0.0226,-0.0196,-0.0193,-0.0183,-0.0182,-0.0181,-0.0131,-0.013,-0.0129,-0.0128,-0.001,-0.0006,-0.0002,0.0004,0,0,0.001,0.0011,0,0,0,0,0,0,0,0,-0.0204,-0.0203,-0.0201,-0.0198,-0.0195,-0.0163,-0.0136,-0.0116,-0.0131,-0.0153,-0.0129,-0.0128,-0.0055,-0.0047,-0.0039,0.0009,0.0014,0.001,0.0012,0.0014,0.0015,0,0,0,0,0,0,0,-0.0205,-0.0204,-0.0207,-0.0201,-0.0197,-0.017,-0.0166,-0.0132,-0.0107,-0.0151,-0.0147,-0.0146,-0.0052,-0.0043,-0.0036,0.0016,0.001,0.0013,0.0016,0.0017,0.0095,0.0095,0,0,0,0,0,0,-0.0218,-0.0206,-0.0208,-0.0206,-0.0199,-0.0171,-0.0167,-0.0173,-0.0109,-0.0099,-0.0147,-0.0144,-0.0051,-0.0041,-0.0031,-0.0001,0.0014,0.0018,0.002,0.0096,0.0095,0.0095,0,0,0,0,0,0,-0.0218,-0.0219,-0.021,-0.0205,-0.0203,-0.0172,-0.0179,-0.0172,-0.0164,-0.0106,-0.0095,-0.0145,-0.005,-0.0037,-0.0002,0.0004,0.002,0.0023,0.0096,0.0096,0.0095,0.0048,0,0,0,0,0,0,-0.0218,-0.0219,-0.023,-0.0207,-0.0204,-0.0211,-0.0179,-0.0172,-0.0165,-0.016,-0.0101,-0.0089,-0.0048,-0.0008,0.0002,0.0009,0.0026,0.0096,0.0096,0.0095,0.005,0.0046,0.0042,0,0,0,0,0,-0.0218,-0.0239,-0.0231,-0.0231,-0.0219,-0.0212,-0.0208,-0.0181,-0.0166,-0.0169,-0.0125,-0.0091,-0.0004,-0.0005,0.0007,0.0015,0.0097,0.0096,0.0095,0.0051,0.0047,0.0042,0,0,0,0,0,0,-0.0245,-0.0235,-0.0226,-0.0244,-0.0231,-0.0204,-0.0206,-0.0189,-0.0159,-0.0152,-0.0095,-0.008,-0.0049,-0.0015,-0.0018,0.0034,0.0052,0.0054,0.0014,0.001,0.0007,0.0008,0.003,0,0,0,0,0,-0.0257,-0.0269,-0.0251,-0.0267,-0.0262,-0.0236,-0.0231,-0.0215,-0.0186,-0.0172,-0.013,-0.0084,-0.0044,-0.0016,0.0018,0.0048,0.0089,0.0061,0.0057,0.0054,0.0062,0.0125,0.0129,0.0093,0.0093,0.0093,0,0,-0.0274,-0.0269,-0.0277,-0.0273,-0.026,-0.0258,-0.023,-0.0229,-0.0219,-0.0163,-0.0137,-0.01,-0.0042,-0.0009,0.0009,0.0023,0.008,0.0053,0.005,0.0061,0.0125,0.0129,0.0132,0.0092,0.0092,0.0092,0,0,-0.0309,-0.0307,-0.0324,-0.0315,-0.0303,-0.0284,-0.0287,-0.0263,-0.0242,-0.0221,-0.0174,-0.0131,-0.0081,-0.0027,0.0005,0.0002,0.0052,0.0005,0.0,0.0061,0.0065,0.0069,0.0106,0.0113,0.0012,0.0012,0.0012,0,-0.033,-0.0345,-0.0328,-0.0335,-0.0328,-0.0298,-0.0305,-0.0283,-0.025,-0.0226,-0.022,-0.0127,-0.0083,-0.0015,-0.0018,-0.0003,0.0028,0.0012,0.0057,0.0062,0.0067,0.0104,0.0114,0.0009,0.001,0.001,0.001,0,-0.0367,-0.0377,-0.0386,-0.038,-0.0371,-0.0376,-0.0342,-0.0327,-0.0302,-0.027,-0.0215,-0.0154,-0.0093,-0.0076,-0.0046,0.0013,0.0019,0.0038,0.0069,0.0068,0.0107,0.0117,0.0006,0.0007,0.0007,0.0008,0,0,-0.042,-0.0414,-0.0417,-0.0416,-0.0394,-0.0392,-0.0372,-0.0338,-0.0316,-0.0274,-0.0234,-0.0161,-0.0125,-0.0086,-0.0039,0.0019,0.007,0.0037,0.0042,0.0075,0.0187,0.0157,0.0165,0.0095,0.0097,0.0098,0.0193,0,-0.0454,-0.0476,-0.0458,-0.047,-0.0475,-0.0434,-0.0417,-0.0379,-0.0337,-0.0293,-0.0212,-0.0165,-0.0129,-0.0103,-0.0039,0.0041,0.0099,0.0042,0.0183,0.0187,0.0162,0.0177,0.0104,0.0201,0.0203,0.0205,0.0206,0,-0.0496,-0.0501,-0.0524,-0.0506,-0.0504,-0.0505,-0.0463,-0.0443,-0.0366,-0.033,-0.0257,-0.0199,-0.0106,-0.0085,0.0069,0.0027,0.0102,0.0166,0.0172,0.0173,0.0177,0.0208,0.0226,0.0225,0.0223,0.0222,0.0221,0,-0.0539,-0.0545,-0.0564,-0.0561,-0.0539,-0.0537,-0.052,-0.0459,-0.0434,-0.0353,-0.0325,-0.0207,-0.0155,-0.0037,0.0087,0.0079,0.0248,0.0258,0.0308,0.0306,0.0326,0.0321,0.0374,0.0374,0.0374,0.0373,0.0373,0,-0.0577,-0.0593,-0.0592,-0.0602,-0.0617,-0.0584,-0.0581,-0.0541,-0.0484,-0.045,-0.0353,-0.0298,-0.014,-0.0028,0.0085,0.0223,0.0252,0.0314,0.0336,0.0299,0.029,0.0332,0.0326,0.0377,0.0376,0.0375,0.0375,0,-0.0619,-0.0622,-0.0646,-0.0641,-0.0643,-0.0655,-0.0635,-0.0622,-0.0565,-0.0519,-0.0497,-0.0361,-0.0218,-0.0061,0.0132,0.021,0.0351,0.0395,0.0331,0.0346,0.0367,0.0357,0.0459,0.0459,0.0459,0.0459,0.0459,0,-0.0638,-0.0659,-0.0684,-0.0705,-0.0709,-0.072,-0.0723,-0.0673,-0.065,-0.0552,-0.0527,-0.039,-0.0287,-0.0035,0.0122,0.0336,0.0365,0.0428,0.0413,0.0369,0.038,0.037,0.0361,0.0459,0.0459,0.0459,0.0459,0,-0.0667,-0.0688,-0.0706,-0.0751,-0.0775,-0.0784,-0.078,-0.0771,-0.0703,-0.0658,-0.0536,-0.0396,-0.0236,-0.0043,0.0119,0.0275,0.0381,0.0427,0.0429,0.0416,0.0369,0.0379,0.0369,0.0459,0.0459,0.0459,0.0459,0,-0.069,-0.0716,-0.0749,-0.0779,-0.0818,-0.0827,-0.0822,-0.0775,-0.074,-0.0627,-0.0592,-0.0404,-0.0292,-0.0074,0.008,0.0222,0.0257,0.0296,0.0305,0.0307,0.023,0.0146,0.0194,0,0,0,0,0,-0.0699,-0.0724,-0.0765,-0.0799,-0.0837,-0.0849,-0.0843,-0.0825,-0.0772,-0.0692,-0.0635,-0.048,-0.0238,-0.0126,0.0012,0.0064,0.0266,0.0227,0.0311,0.0457,0.0457,0.0389,0,0,0,0,0,0,-0.0707,-0.0751,-0.0763,-0.08,-0.0828,-0.0855,-0.0855,-0.082,-0.076,-0.0693,-0.0559,-0.0467,-0.0231,-0.0321,0.0007,0.0052,0.0119,0.0349,0.0352,0.0457,0.0457,0.0457,0.0388,0,0,0,0,0]}]]